This is the latest recevied weather packets stored in our database for station/object W9WRP. If no packets are shown the sender has not sent any weather packets the latest 10 day(s).
| Time | Temp. | Humidity | Pressure | Rain* | Wind** | Luminosity | Snow |
|---|---|---|---|---|---|---|---|
| 1788136113 | 39.44° C | 27% | 1011.1 hPa | 0 mm | - | 78 W/m² | - |
| 1788135812 | 40° C | 28% | 1011.2 hPa | 0 mm | - | 127 W/m² | - |
| 1788135508 | 40° C | 27% | 1011 hPa | 0 mm | - | 129 W/m² | - |
| 1788135203 | 40° C | 27% | 1011.2 hPa | 0 mm | - | 94 W/m² | - |
| 1788134901 | 40° C | 27% | 1011.3 hPa | 0 mm | - | 152 W/m² | - |
| 1788134601 | 40° C | 27% | 1011.2 hPa | 0 mm | - | 176 W/m² | - |
| 1788134299 | 38.89° C | 28% | 1011.3 hPa | 0 mm | - | 160 W/m² | - |
| 1788133994 | 38.89° C | 28% | 1011.5 hPa | 0 mm | - | 50 W/m² | - |
| 1788133689 | 40° C | 26% | 1011.5 hPa | 0 mm | - | 95 W/m² | - |
| 1788133385 | 40° C | 26% | 1011.6 hPa | 0 mm | - | 90 W/m² | - |
| 1788133081 | 40.56° C | 26% | 1011.4 hPa | 0 mm | - | 72 W/m² | - |
| 1788132776 | 40° C | 26% | 1011.4 hPa | 0 mm | - | 218 W/m² | - |
| 1788132471 | 39.44° C | 26% | 1011.3 hPa | 0 mm | - | 66 W/m² | - |
| 1788132167 | 38.89° C | 27% | 1011.5 hPa | 0 mm | - | 77 W/m² | - |
| 1788131863 | 38.89° C | 27% | 1011.5 hPa | 0 mm | - | 68 W/m² | - |
| 1788131562 | 39.44° C | 27% | 1011.5 hPa | 0 mm | - | 159 W/m² | - |
| 1788131258 | 40.56° C | 25% | 1011.5 hPa | 0 mm | - | 310 W/m² | - |
| 1788130953 | 40.56° C | 25% | 1011.6 hPa | 0 mm | - | 239 W/m² | - |
| 1788130652 | 40° C | 26% | 1011.9 hPa | 0 mm | - | 247 W/m² | - |
| 1788130348 | 40° C | 27% | 1011.9 hPa | 0 mm | - | 277 W/m² | - |
| 1788130046 | 40° C | 26% | 1012 hPa | 0 mm | - | 310 W/m² | - |
| 1788129742 | 40° C | 27% | 1012 hPa | 0 mm | - | 136 W/m² | - |
| 1788129438 | 40° C | 26% | 1012.3 hPa | 0 mm | - | 339 W/m² | - |
| 1788129134 | 40° C | 26% | 1012.2 hPa | 0 mm | - | 353 W/m² | - |
| 1788128828 | 40.56° C | 26% | 1012.4 hPa | 0 mm | - | 454 W/m² | - |
* Rain latest hour (hover to see other rain measurements)
** Current wind speed in m/s (hover to see current wind gust speed)